RH
90 82 78 80 85 84 82 84 83 83 89 88 81 83 91 91 85 79 75 69 64 66 79 82 62 48 60 70 70 73 78 80 80 84 92 94 93 96 97 100 87 46 27 37 38 36 39 46 59 73 84 94 100 101 98 93 90 87 88 89 86 85 87 87 90 95 95 95 96 93 89 89 87 85
92 87 83 81 82 73 68 79 81 78 81 79 77 82 85 89 94 89 81 74 71 71 75 81 67 46 52 66 68 69 71 76 81 82 89 95 94 96 97 99 98 65 32 38 49 45 40 38 43 52 62 72 83 94 100 99 93 87 88 92 88 85 86 84 86 95 98 97 99 98 94 94 88 81
83 69 67 73 72 62 67 91 94 80 78 82 90 95 86 79 86 87 85 82 77 76 77 77 67 47 42 52 60 65 66 71 80 82 83 89 92 95 98 98 103 85 46 35 53 63 57 47 40 40 44 47 51 62 78 90 98 95 87 86 86 84 85 85 85 89 94 95 98 99 98 99 95 85
83 67 59 61 63 66 82 100 96 76 71 81 95 100 84 67 70 77 81 84 76 69 74 80 75 57 44 46 54 63 68 72 80 83 81 85 90 96 100 98 101 100 73 46 49 68 74 65 50 40 38 39 36 36 41 54 77 93 92 84 82 84 87 89 89 89 90 92 96 97 96 98 99 91
96 87 72 64 68 82 92 94 94 87 81 83 87 91 81 58 55 65 72 84 84 65 62 77 83 72 60 61 64 66 74 79 81 84 83 84 91 97 100 99 98 102 95 72 57 67 81 78 65 48 37 35 34 32 31 33 45 68 85 89 87 87 88 90 93 94 92 92 94 94 94 97 98 92
99 93 88 85 80 85 92 94 97 94 88 91 90 89 89 68 51 55 66 84 94 78 64 72 81 76 69 73 76 72 75 80 81 83 83 84 90 95 99 101 99 99 101 92 78 76 83 82 70 52 38 32 30 28 30 31 33 41 57 73 83 88 89 88 89 92 94 93 92 90 91 96 97 94
91 86 93 100 87 79 90 99 99 88 81 91 95 93 98 91 67 57 64 79 92 93 84 83 86 81 71 74 82 82 79 81 82 83 86 87 90 95 98 100 100 99 100 100 93 87 87 82 69 52 39 33 31 28 28 30 32 33 37 47 60 71 81 87 87 87 88 90 91 90 90 93 95 96
89 89 90 92 85 80 90 100 100 93 87 90 96 96 101 100 80 65 71 82 90 98 97 93 95 90 77 74 82 88 87 85 83 85 91 93 93 96 99 99 100 100 99 101 99 94 88 76 60 49 44 39 37 36 35 33 32 33 33 35 41 49 60 73 83 85 84 86 88 88 88 91 94 96
87 92 88 86 86 83 89 101 100 96 98 97 97 100 99 99 95 87 90 94 95 100 99 94 97 98 90 85 86 91 94 91 89 93 97 97 97 99 100 99 100 100 99 100 100 99 93 79 63 56 57 56 54 54 52 48 43 39 37 35 35 38 42 52 65 76 82 85 86 87 87 87 92 96
86 93 92 91 94 86 83 95 96 91 99 100 97 101 100 98 99 98 98 100 99 99 97 95 97 100 97 95 95 97 99 97 97 100 99 98 100 100 100 100 100 99 99 100 100 100 100 94 88 84 84 83 81 79 75 68 59 52 47 43 37 35 37 40 46 56 66 73 77 82 85 87 91 94
85 93 97 96 99 92 80 86 91 88 93 92 89 96 98 96 99 100 98 100 99 94 93 96 100 100 97 96 98 100 100 100 101 100 99 100 100 100 99 100 99 99 100 100 100 99 98 97 98 98 97 95 92 91 87 81 73 65 60 56 49 41 36 37 40 44 49 54 57 63 71 80 88 92
91 96 100 98 102 95 77 75 84 86 85 83 83 92 98 99 100 97 93 95 95 87 86 93 99 101 99 96 96 99 99 100 100 98 99 100 100 100 101 99 99 99 99 99 99 98 97 96 97 98 97 95 91 88 84 79 76 72 68 67 66 58 47 40 40 43 44 45 45 46 49 57 69 81
98 101 99 98 101 92 71 66 75 78 78 80 84 93 99 100 98 93 89 90 88 82 83 92 96 98 99 96 94 96 97 98 99 97 98 100 99 100 100 99 99 98 97 97 96 95 96 96 97 97 96 94 92 90 86 82 79 75 71 69 71 71 65 54 45 43 45 46 47 46 44 45 48 59
98 100 96 94 97 87 68 63 68 71 73 76 81 88 94 97 97 95 93 92 87 82 83 90 94 96 98 94 88 88 92 97 99 98 100 100 97 97 99 98 98 96 94 94 94 93 93 94 96 97 96 95 94 93 91 88 86 83 78 73 71 72 75 72 62 51 46 46 50 55 56 55 54 53
100 99 94 91 92 86 75 67 66 66 68 71 76 81 86 94 96 95 94 93 91 86 80 84 92 96 98 94 85 84 91 96 98 99 100 100 98 98 99 98 96 95 93 91 91 91 91 91 93 95 95 97 97 95 93 91 91 90 87 82 78 74 74 78 78 71 60 53 57 68 72 68 66 66
100 99 96 94 93 91 84 75 70 69 67 69 76 79 83 92 97 95 90 87 89 91 85 87 94 96 98 99 93 90 90 88 92 98 100 100 100 98 98 97 95 93 92 92 91 90 90 91 92 92 92 94 96 96 96 95 94 94 93 90 87 82 77 75 77 80 77 68 68 80 90 87 83 83
100 99 98 98 98 97 93 86 83 81 77 76 81 82 84 90 95 96 92 83 82 88 90 93 96 95 93 96 98 97 90 84 88 95 96 97 98 97 96 96 93 90 91 94 94 92 91 91 91 90 90 91 92 94 95 97 97 97 96 94 90 88 84 78 76 79 83 81 78 82 92 97 97 95
94 99 100 99 100 100 99 96 94 93 90 88 88 87 87 89 91 93 92 85 79 80 86 95 100 96 87 85 95 100 89 78 81 85 87 92 96 97 98 97 93 89 89 90 92 93 93 91 91 90 89 89 89 90 91 93 96 96 96 95 92 90 90 86 82 82 87 90 89 87 90 94 96 96
81 91 97 100 101 99 98 97 97 97 97 96 95 92 89 88 89 89 88 86 81 75 76 84 91 90 81 77 89 97 85 74 77 80 80 85 92 97 100 99 96 92 89 88 88 89 89 88 91 91 90 89 88 88 88 89 91 94 95 95 94 94 97 98 95 93 93 93 93 93 93 94 95 95
69 75 80 87 94 98 99 97 96 98 99 99 100 98 95 92 91 88 82 79 81 78 72 73 76 78 76 73 79 89 88 83 82 85 86 85 88 95 99 100 99 96 93 91 88 88 87 85 87 92 90 89 89 89 88 88 89 89 91 92 93 94 99 100 99 100 99 96 94 93 92 93 93 93
77 75 75 77 80 88 95 96 95 97 100 100 100 100 100 98 97 94 85 77 80 82 77 74 73 72 74 75 75 79 84 82 80 90 98 91 87 96 100 100 101 98 95 92 90 92 91 84 84 91 89 86 89 90 89 89 89 89 89 88 89 92 99 101 100 100 100 99 99 97 96 95 95 95
94 92 91 89 86 84 86 87 91 97 101 100 100 100 100 99 100 100 95 86 85 86 85 83 81 79 80 79 77 77 81 80 76 84 94 91 91 100 102 98 100 100 96 92 90 94 95 88 85 89 88 86 88 89 88 87 87 88 89 88 86 87 92 98 100 100 100 100 100 100 99 99 99 99
101 98 94 94 95 92 88 86 88 94 98 99 101 100 99 99 97 95 96 94 90 91 94 92 89 90 88 82 78 78 81 83 79 77 85 94 99 101 100 99 100 100 95 91 91 93 94 90 88 91 92 92 92 90 88 87 86 87 89 89 88 86 86 90 97 100 100 100 100 100 100 100 100 100
99 97 93 93 95 96 97 96 94 95 95 96 98 98 100 101 95 90 92 92 89 91 94 94 93 93 89 81 79 79 80 85 87 80 81 96 103 99 99 100 98 96 90 84 87 93 92 89 90 92 92 92 92 89 88 88 89 89 90 91 91 90 89 88 89 93 97 100 100 100 100 100 100 100
98 98 97 97 96 96 99 100 100 100 98 96 97 98 98 97 92 89 90 90 89 89 90 91 92 92 90 87 86 86 83 87 93 84 79 92 101 98 100 101 94 90 83 73 75 87 91 89 92 93 91 90 87 82 81 83 84 86 89 91 91 92 94 93 90 90 93 96 98 100 101 100 100 100
98 97 99 99 98 99 101 100 100 101 99 99 101 98 92 88 87 90 92 91 92 94 92 91 91 92 94 92 90 94 95 92 90 83 77 84 94 96 101 101 92 84 76 64 65 79 86 86 88 89 88 86 83 78 75 74 74 75 80 84 88 91 93 92 93 93 92 92 95 97 99 100 100 100
99 99 99 99 97 98 100 99 99 99 99 100 100 96 92 89 89 94 97 95 96 99 99 97 95 94 94 88 85 95 100 93 91 90 80 79 89 97 100 100 95 89 81 70 69 80 86 84 80 77 75 74 74 72 70 68 66 65 67 72 78 85 89 89 90 91 93 96 97 97 99 101 100 99
100 100 100 99 99 99 98 96 95 97 99 100 99 97 95 95 95 97 99 98 97 98 100 100 99 97 93 88 88 94 93 88 93 97 86 80 90 100 100 99 98 95 87 79 81 87 88 81 72 65 65 68 68 68 69 70 68 65 66 68 72 77 83 87 89 92 95 98 98 98 100 100 99 99
100 98 96 95 95 97 98 95 93 96 99 98 96 94 92 94 97 98 99 99 99 99 100 100 99 96 92 89 90 92 91 91 95 97 92 89 95 100 100 100 101 98 91 86 88 92 92 86 79 73 73 75 75 75 78 79 75 71 71 73 75 76 79 82 85 90 93 93 95 98 100 100 100 100
98 93 87 86 89 95 99 98 97 99 98 93 90 86 83 88 97 99 98 99 100 100 101 100 98 95 93 94 95 93 92 95 96 92 88 88 95 100 100 99 99 99 97 94 95 97 97 95 92 90 90 89 89 90 90 84 78 75 74 76 80 80 79 80 83 86 89 89 91 95 98 99 99 100
97 90 86 89 94 96 93 88 90 93 89 87 91 91 85 88 97 99 96 96 97 99 100 99 98 98 97 100 99 93 88 89 90 87 83 83 89 94 94 96 98 99 98 98 99 99 97 95 95 98 99 99 99 99 94 86 82 79 76 77 84 85 80 78 80 81 83 86 88 91 94 96 97 99
95 91 91 95 98 96 92 90 94 96 91 89 96 99 92 90 94 95 94 94 96 97 96 94 96 100 101 98 94 90 90 92 91 89 90 92 94 91 86 87 92 94 97 100 100 99 98 98 98 100 100 100 100 100 96 91 88 86 79 75 81 84 79 76 78 79 79 82 84 85 88 90 92 94
97 94 96 99 98 97 98 96 95 96 96 94 96 99 96 93 93 95 96 98 99 99 98 97 99 101 98 94 91 93 98 99 96 95 98 100 101 98 91 87 87 89 94 98 98 97 98 99 99 99 100 100 99 100 100 98 97 95 88 80 80 83 80 76 77 80 79 80 81 81 82 84 86 87
98 94 97 100 99 98 97 91 87 92 97 95 94 95 95 96 98 99 99 100 100 99 99 98 98 98 96 92 93 98 101 98 94 94 95 95 96 97 96 97 96 94 92 93 93 92 93 95 97 100 100 100 99 99 100 100 100 99 95 89 87 88 86 83 82 82 82 83 83 82 81 81 80 81
95 93 96 100 101 99 96 92 91 96 100 99 98 97 96 98 99 98 98 100 100 98 97 96 98 100 94 88 93 100 100 94 90 88 88 88 89 89 90 93 96 94 92 93 93 93 93 94 96 99 99 99 99 97 96 96 98 99 96 91 89 91 92 89 86 85 85 85 85 85 85 83 80 79
93 95 99 100 99 99 97 96 96 98 99 100 100 100 99 100 99 97 98 100 99 96 95 96 100 101 94 88 93 100 97 92 91 92 93 93 93 93 94 95 95 95 97 99 98 98 99 98 97 99 100 99 100 99 94 90 92 95 94 88 86 89 92 89 86 86 87 88 88 89 88 86 83 80
94 98 100 100 100 100 100 99 99 99 100 100 100 100 100 100 100 99 99 99 98 99 98 98 100 100 92 86 87 89 89 91 94 97 99 99 99 99 100 99 99 99 99 99 97 97 99 100 100 100 100 99 100 101 97 92 91 93 92 88 85 85 86 87 86 87 90 92 93 92 90 89 89 86
99 100 99 100 100 100 100 100 100 99 100 100 99 100 100 100 100 101 100 99 99 99 99 100 101 99 95 92 91 90 92 97 99 99 100 100 100 100 100 100 100 100 99 98 96 95 97 100 100 100 100 100 100 100 99 97 95 91 90 90 90 86 85 87 90 92 94 95 93 92 91 91 90 89
100 100 100 100 100 100 100 100 100 100 100 100 100 100 100 100 100 99 99 100 101 100 100 100 100 100 99 99 99 99 99 100 100 100 100 100 100 100 100 100 100 100 100 99 99 99 100 100 100 100 100 100 100 100 99 99 98 93 91 93 95 95 94 96 97 97 96 93 91 91 92 92 92 92
100 100 100 100 100 100 99 97 96 96 96 97 98 98 99 100 100 98 95 95 95 98 99 99 98 99 99 99 100 100 100 100 100 100 100 100 100 100 100 100 100 100 100 100 100 100 100 100 100 100 100 99 100 100 100 100 100 98 96 97 99 99 98 96 94 93 91 88 87 90 92 92 92 92
100 100 100 100 100 101 99 98 96 94 92 91 91 91 91 91 92 92 92 92 92 94 97 98 97 97 98 99 100 100 99 100 100 100 100 101 101 100 100 100 100 100 100 100 100 100 100 100 101 101 100 100 100 100 100 100 100 100 99 98 96 95 91 86 85 85 85 83 84 86 87 86 84 83
99 100 100 100 100 100 101 100 98 96 93 89 86 84 84 83 83 82 82 83 85 86 86 87 86 86 86 87 87 88 89 90 91 91 93 94 95 96 99 100 100 100 100 100 100 99 99 99 101 101 100 100 100 100 100 100 99 98 95 89 84 83 83 82 82 83 83 81 80 78 76 72 69 67
99 100 100 100 100 100 100 100 99 97 95 91 86 82 79 77 77 76 75 74 73 72 72 70 68 67 68 72 73 74 74 75 75 77 81 84 85 89 95 99 100 100 100 100 100 100 100 100 101 101 100 100 100 100 100 99 98 96 92 85 80 79 81 81 81 81 79 75 71 68 65 62 58 55
100 100 100 99 100 101 100 100 99 98 98 95 89 81 73 67 64 63 63 61 57 52 49 48 46 46 52 63 72 74 74 74 75 78 81 84 85 87 92 97 99 100 100 101 100 100 100 100 100 100 100 100 100 100 100 100 99 98 95 92 87 83 81 80 78 75 72 69 66 63 60 58 55 53
97 98 97 95 95 96 98 100 101 99 97 96 93 88 82 73 62 53 48 45 42 37 32 29 29 32 42 59 74 80 80 80 80 81 83 86 88 89 91 95 98 99 100 100 100 99 99 100 100 100 100 100 101 101 101 101 101 99 96 91 86 81 78 76 74 70 67 63 60 58 57 56 55 53
Wind_Speed
31 34 37 36 34 36 37 37 36 35 34 37 39 36 32 31 29 27 26 27 29 29 28 32 42 46 42 38 38 37 39 44 49 51 51 54 56 57 58 57 56 55 54 53 52 52 52 51 51 49 47 44 43 42 41 41 41 42 42 41 40 40 40 39 37 36 33 32 31 31 31 30 31 32
29 31 33 34 35 39 39 36 37 37 35 38 40 39 37 32 30 31 29 27 28 28 28 30 38 46 44 40 38 37 38 39 42 46 49 52 55 57 58 58 58 57 56 54 53 52 52 53 52 52 50 48 46 45 43 42 42 43 43 42 42 42 42 41 41 39 36 35 35 33 32 32 33 34
31 35 36 35 36 38 36 34 35 35 35 36 35 37 40 36 34 36 34 31 31 30 28 29 37 44 45 42 40 38 38 38 38 41 45 49 52 55 58 59 58 59 59 57 55 54 54 53 54 54 53 52 50 48 47 45 44 44 44 44 44 44 43 42 43 42 39 38 37 36 35 34 35 35
30 35 37 36 36 35 33 34 36 36 36 37 34 34 39 38 36 38 39 36 36 38 34 28 33 40 43 43 42 39 37 38 38 38 40 45 49 51 55 58 58 59 60 60 57 56 55 54 55 55 55 54 52 51 50 48 47 46 45 45 45 45 43 42 42 43 42 41 40 39 39 38 37 36
28 31 34 35 34 33 34 35 35 34 35 36 36 35 37 40 39 39 40 37 36 42 40 30 28 34 37 40 41 38 36 37 37 36 37 41 45 48 51 55 58 59 61 61 59 57 56 55 55 55 55 55 54 52 51 50 49 48 47 47 46 46 45 44 43 42 41 41 41 40 40 39 39 38
27 29 29 31 32 31 30 30 31 31 32 32 33 33 34 37 41 40 40 37 34 39 40 35 33 34 35 37 37 36 36 36 35 36 37 39 42 45 48 50 54 57 59 61 62 59 56 55 55 55 55 55 54 53 52 51 50 49 49 49 48 48 47 47 47 45 42 41 40 41 42 41 40 40
27 29 27 27 30 30 26 24 28 32 32 31 30 29 28 32 37 37 37 37 33 31 30 31 37 41 39 36 34 33 34 35 34 34 35 37 39 42 45 46 49 51 54 59 62 60 56 55 55 54 53 52 52 52 51 51 51 50 49 50 50 49 49 49 49 48 46 43 41 41 42 41 41 42
25 27 27 26 27 27 24 22 26 30 30 31 30 27 26 29 34 34 34 36 32 26 24 25 31 39 39 35 32 31 31 33 34 33 34 37 38 40 42 44 45 47 50 54 58 58 55 54 54 54 53 51 51 51 51 50 51 50 49 49 50 50 50 50 50 49 48 46 44 43 42 41 42 43
24 25 25 25 24 25 23 22 24 27 24 24 25 24 24 26 29 31 32 33 31 28 26 23 23 29 34 34 31 29 29 31 31 31 32 34 35 36 39 41 42 43 45 49 53 54 54 54 53 52 52 52 52 51 51 50 51 52 51 49 49 50 50 50 51 51 50 48 46 45 45 43 41 42
24 24 24 24 24 24 24 22 24 25 22 20 20 20 19 20 23 29 28 25 23 24 22 20 19 19 23 28 30 28 27 28 30 30 29 29 30 32 35 37 39 41 42 45 48 50 51 52 52 51 50 52 54 53 52 51 51 52 53 52 50 50 49 50 51 52 52 51 48 46 46 45 42 41
24 25 25 25 25 25 25 24 23 24 22 20 19 17 17 17 20 23 22 17 15 17 17 15 15 14 13 18 24 26 25 26 28 29 29 28 29 30 32 34 36 39 41 43 44 45 46 46 46 47 47 50 52 52 53 53 52 52 54 55 54 52 50 49 49 50 52 53 52 50 48 46 44 42
21 22 23 24 24 24 25 25 23 22 22 21 19 17 16 17 19 19 17 13 11 14 15 13 13 13 11 12 16 20 23 24 26 28 28 29 30 31 31 33 34 36 38 39 39 40 40 40 41 42 43 45 47 48 49 50 50 51 53 55 56 54 52 49 48 48 49 50 52 52 50 48 46 45
16 17 19 21 22 23 25 27 25 22 22 22 20 19 17 17 19 17 14 12 12 13 14 12 11 12 13 14 14 15 18 21 24 25 26 26 27 29 30 31 31 32 33 34 35 35 36 37 37 38 40 41 43 44 45 45 46 48 51 53 55 55 53 50 48 46 46 46 47 48 49 48 47 46
15 14 18 20 19 20 23 26 26 24 23 23 22 21 19 18 19 18 16 15 14 14 13 13 12 12 14 17 19 18 16 17 19 20 23 25 26 26 27 27 27 27 28 29 31 32 32 33 35 35 36 38 39 40 42 42 43 45 47 50 51 53 53 52 50 46 44 44 44 45 45 46 46 45
14 13 18 19 18 18 20 24 26 26 25 24 23 23 22 21 21 21 20 19 18 17 16 14 14 13 13 16 21 22 20 18 19 20 22 25 26 25 25 25 25 26 27 27 28 28 29 30 31 32 33 34 35 36 37 38 40 41 42 44 45 47 49 51 51 49 46 44 43 42 43 44 45 45
11 8 12 16 16 16 18 21 24 26 26 25 25 24 24 23 23 23 22 22 21 19 18 17 15 15 13 14 18 23 24 23 23 23 23 24 25 25 25 25 25 26 27 27 27 27 27 27 27 28 30 30 30 31 32 34 36 38 38 38 40 41 43 45 47 48 47 46 44 43 42 42 43 43
12 6 5 11 13 13 14 16 20 22 24 25 25 25 25 24 24 24 23 24 23 21 20 17 15 15 15 14 15 20 25 27 26 25 25 25 25 24 24 24 25 25 25 26 26 26 25 25 25 25 26 27 27 28 29 31 33 34 35 34 34 36 38 42 44 45 45 46 46 46 44 43 43 43
13 7 5 8 10 10 12 13 16 18 20 22 23 25 25 26 26 25 25 25 26 25 24 20 16 16 17 17 15 17 22 26 26 27 28 27 26 24 22 22 23 23 22 22 23 24 24 24 24 24 24 24 25 26 27 28 30 31 32 31 31 32 35 38 42 44 44 44 44 45 46 45 43 43
16 13 11 10 10 11 12 13 14 15 17 19 21 23 25 26 27 27 27 26 27 28 28 25 21 20 21 20 19 19 19 21 23 25 26 27 27 26 23 22 23 22 19 18 20 21 22 24 24 24 25 24 24 25 25 26 29 30 30 30 31 32 34 35 37 39 40 41 42 43 44 45 44 43
18 18 17 16 16 15 13 13 14 14 15 16 18 20 22 24 26 28 27 26 27 28 29 28 27 26 24 22 21 21 20 18 20 22 22 24 26 27 26 24 24 24 21 20 20 18 19 23 24 23 24 24 23 24 24 25 26 27 28 29 31 34 35 33 33 34 35 37 38 39 40 42 43 44
16 17 17 18 19 19 17 15 14 14 15 16 17 18 20 21 24 26 27 26 26 27 28 29 29 28 26 23 21 21 21 20 20 21 22 23 23 22 21 21 22 25 26 24 22 18 16 21 23 22 23 24 23 23 24 24 25 25 25 27 29 33 37 34 31 31 31 32 34 36 38 38 39 39
15 16 17 16 18 19 20 20 19 17 16 16 16 17 19 20 21 24 26 26 25 26 26 27 28 28 27 25 22 20 21 21 20 21 23 24 22 19 18 17 16 20 26 28 25 20 18 20 23 22 23 23 23 24 25 24 25 25 25 26 27 30 36 37 34 31 29 28 30 33 35 36 36 36
16 18 20 19 19 20 20 21 21 21 20 19 18 17 19 21 22 23 24 26 26 26 26 26 27 27 27 26 23 22 22 21 21 23 22 20 20 20 18 16 13 15 24 29 27 24 22 23 24 23 21 21 21 24 25 24 25 25 26 27 28 29 33 37 38 36 32 30 29 29 31 35 37 37
17 18 20 20 21 22 22 23 24 24 24 25 24 22 20 21 22 21 21 24 25 25 26 26 27 27 27 26 25 24 24 22 22 24 22 19 20 20 18 17 15 16 22 27 27 25 25 25 24 23 21 18 16 20 23 23 24 26 26 28 30 31 33 36 39 40 39 37 34 31 30 31 34 37
15 15 15 16 17 18 19 21 21 21 23 25 27 28 26 25 23 21 19 21 23 24 25 26 27 27 27 27 27 26 27 25 24 24 24 22 22 22 19 16 16 18 20 22 24 26 26 26 24 23 22 19 16 18 20 20 21 24 26 28 30 31 33 35 37 39 40 41 40 37 34 31 31 34
14 15 15 16 16 15 15 16 17 18 19 20 23 27 29 28 26 23 20 20 20 22 24 25 27 28 28 28 27 26 27 27 25 24 25 25 25 25 22 17 17 20 19 17 19 23 26 26 24 22 22 21 20 20 20 19 20 21 23 26 28 29 31 34 36 38 39 40 41 40 40 37 35 34
14 15 17 17 16 14 13 14 14 15 16 18 19 21 24 26 26 24 23 22 21 21 23 25 25 27 29 28 27 26 26 27 25 23 24 26 26 26 25 22 20 20 19 17 17 19 22 23 23 21 21 20 20 21 20 20 21 22 22 24 26 28 30 32 34 36 37 39 40 40 40 39 38 36
13 14 15 15 14 13 12 12 12 12 14 16 17 18 20 22 24 25 25 25 24 22 23 24 25 26 28 27 25 24 24 24 24 23 22 24 27 27 27 27 25 22 20 20 19 19 20 21 21 20 19 18 19 20 19 19 20 19 19 21 24 27 29 30 31 33 35 38 40 40 40 39 38 37
11 12 12 12 13 14 14 14 13 13 14 16 17 18 19 20 22 25 26 26 25 24 24 24 25 25 26 25 24 23 22 21 23 23 21 24 27 26 24 25 25 23 23 23 21 20 21 22 22 21 20 19 19 19 19 19 18 17 16 18 21 23 26 28 29 31 34 36 37 38 39 40 40 40
10 10 11 12 13 14 14 13 11 11 13 15 16 18 20 21 22 23 24 25 25 24 23 24 24 23 21 21 21 22 21 21 22 23 23 25 25 23 21 21 22 23 24 24 23 22 22 22 22 22 22 21 20 20 20 20 19 18 17 18 19 20 22 24 27 29 32 34 34 36 37 38 40 41
6 7 8 9 8 6 6 5 5 7 10 12 12 13 18 22 22 21 22 23 24 23 22 23 22 20 19 19 19 20 21 23 23 23 25 26 25 21 19 19 20 21 23 23 22 22 23 23 22 22 22 22 21 21 21 21 21 22 21 21 21 21 21 22 24 26 29 30 32 34 35 36 38 39
8 8 8 5 1 2 2 3 4 5 7 8 7 7 12 18 20 19 19 20 21 22 22 21 21 20 19 19 19 18 18 21 24 24 24 26 27 24 21 21 22 22 23 22 22 23 24 23 23 22 22 22 21 22 22 22 23 24 24 23 24 25 24 23 23 24 26 27 30 32 33 35 36 37
12 9 6 3 3 1 2 3 4 5 4 6 8 9 10 13 14 15 17 17 18 20 21 21 21 22 21 20 19 18 16 18 22 23 22 22 23 23 22 23 24 24 24 24 24 25 26 26 26 26 26 25 24 24 24 24 25 26 26 25 26 27 27 26 26 26 25 26 28 30 31 33 35 37
10 6 4 4 4 3 2 2 3 3 2 5 8 10 11 11 11 12 14 16 17 19 21 21 21 22 22 21 20 20 18 17 20 22 23 22 22 22 24 25 25 26 26 27 27 27 28 28 28 29 29 28 27 28 28 28 28 28 27 27 28 29 29 28 27 27 27 27 28 30 31 33 34 36
8 8 7 6 5 5 4 4 5 2 3 5 7 10 11 11 11 12 14 15 18 19 19 18 18 20 22 21 20 20 19 17 17 19 22 22 23 24 25 26 26 26 25 25 25 25 25 25 26 27 28 29 29 31 31 31 31 32 31 30 30 30 30 30 28 28 29 29 30 31 33 34 35 36
10 10 8 8 8 8 8 8 7 3 3 5 7 9 11 11 12 12 12 13 15 16 16 17 18 19 20 21 20 19 20 19 18 19 20 21 21 23 24 24 24 23 22 22 22 21 22 23 24 26 28 29 31 33 34 32 32 34 35 34 33 33 32 32 31 31 32 32 33 34 35 35 36 37
12 11 10 11 11 11 11 12 9 6 4 5 6 9 12 13 13 12 11 11 12 13 14 16 18 18 19 21 21 19 19 20 20 20 21 22 22 23 24 25 25 24 24 23 23 22 22 24 25 26 29 31 33 36 35 33 32 34 34 34 35 35 35 34 34 34 34 34 34 35 36 36 37 38
13 11 11 12 13 13 13 13 13 12 10 8 7 8 10 12 12 12 12 13 14 14 14 15 16 17 17 19 19 18 18 19 19 20 21 22 24 25 26 27 27 27 26 26 25 24 25 26 27 28 31 33 36 37 36 35 34 33 32 32 35 36 36 37 37 36 36 36 36 36 36 37 38 39
14 12 11 11 12 13 13 13 13 14 13 13 12 12 12 12 11 10 9 9 11 12 12 13 14 14 14 15 15 15 15 16 18 20 21 22 23 24 26 27 27 28 28 28 28 28 28 30 31 32 33 35 36 36 35 35 34 33 31 32 34 35 35 36 36 36 36 37 37 37 38 38 39 39
13 12 11 10 11 11 12 12 12 12 12 12 11 11 11 11 10 9 7 7 7 8 9 10 11 12 12 13 14 15 16 16 17 18 19 20 21 22 23 24 25 26 27 28 28 29 29 30 30 29 30 32 33 33 33 33 33 32 31 30 30 30 30 31 32 33 35 36 36 37 37 38 39 39
11 10 9 9 9 9 10 10 10 9 9 9 8 7 7 6 6 5 5 5 6 7 8 9 10 11 12 13 13 15 16 17 17 18 18 19 20 21 22 23 23 23 24 25 26 26 26 25 24 23 25 26 28 29 31 32 32 32 30 28 27 27 28 30 31 32 33 34 35 35 36 37 37 38
9 8 7 6 6 7 7 7 7 6 6 6 6 5 4 2 1 1 2 3 4 6 7 8 9 10 11 12 13 14 15 16 17 17 18 19 20 21 22 22 22 23 23 23 24 24 22 20 19 19 21 22 24 26 29 30 29 29 28 27 27 27 28 30 31 32 33 34 34 35 35 35 35 37
7 7 6 5 4 4 4 5 5 6 6 5 5 5 4 2 1 2 2 3 4 5 6 8 9 10 11 12 13 14 15 16 17 17 17 18 19 19 19 20 21 21 21 21 21 19 17 16 16 16 17 19 21 24 26 27 26 27 28 29 28 28 28 30 31 31 32 33 34 35 35 34 35 37
8 7 7 6 5 4 4 4 5 5 4 4 4 5 5 3 2 0 1 2 3 4 5 6 7 9 10 11 12 12 12 13 13 14 15 15 15 15 16 17 17 17 17 17 16 15 14 14 15 15 17 18 20 22 25 25 26 27 28 29 30 30 29 29 30 30 32 33 34 34 35 35 36 37
9 8 7 7 7 6 6 5 5 4 4 4 4 5 4 4 3 3 1 1 2 3 3 4 5 6 8 10 10 11 10 10 11 12 13 13 13 13 14 15 15 15 15 14 14 14 14 15 16 17 18 19 21 23 25 26 27 28 29 30 31 31 29 29 30 31 33 35 35 34 34 35 35 36
Wind_Direction
253 252 253 254 256 257 253 248 246 245 246 247 245 241 241 242 244 247 245 243 240 235 235 240 244 245 245 244 243 241 236 231 230 230 229 227 226 224 222 223 223 223 224 224 224 224 225 227 228 227 225 223 220 219 219 221 222 223 223 222 223 222 221 221 219 217 217 217 218 219 220 221 223 222
253 253 252 252 252 250 250 252 251 247 247 248 246 244 244 244 243 246 250 250 244 238 235 237 242 244 243 243 244 244 241 235 231 230 229 228 227 224 221 221 223 223 222 224 225 226 226 227 227 228 228 227 226 222 220 220 222 224 225 225 225 224 225 226 224 221 219 217 216 218 220 221 223 223
253 252 252 252 249 245 248 252 252 248 246 246 246 247 248 248 245 247 252 253 249 244 239 239 244 244 242 242 245 246 243 239 236 233 230 229 228 226 222 221 222 223 222 223 225 226 227 228 227 228 229 229 230 229 225 222 222 224 226 227 227 227 227 228 227 225 224 222 218 217 219 220 222 223
252 251 250 250 247 244 248 251 249 249 246 244 245 247 249 249 246 247 252 255 252 248 243 243 248 247 243 241 242 245 242 238 237 235 231 229 228 227 225 222 222 222 221 221 224 227 228 228 228 228 229 229 230 232 232 229 225 223 225 227 227 227 226 225 225 225 226 227 224 220 219 219 220 222
255 253 250 249 246 246 253 251 246 246 246 245 245 246 249 250 247 246 251 257 255 250 247 245 244 244 241 238 237 238 238 234 234 235 232 230 228 227 226 224 223 222 221 220 221 225 227 227 227 228 228 230 230 232 233 233 230 226 224 225 227 227 226 225 226 227 227 228 228 226 224 221 219 219
255 252 253 254 250 252 257 248 238 241 245 244 245 244 246 249 248 245 249 256 255 251 250 248 246 244 241 237 234 233 234 232 231 232 231 229 228 227 226 226 225 223 222 220 220 222 226 226 226 226 227 229 230 231 233 233 233 231 227 226 226 228 228 228 229 230 230 229 228 228 229 226 221 218
256 253 254 258 255 256 258 245 236 244 248 246 245 243 241 245 248 245 248 255 252 245 245 245 243 243 242 237 231 227 229 230 229 229 229 229 228 227 226 227 227 225 225 223 220 220 223 224 224 224 225 227 229 230 232 233 233 233 231 229 228 228 229 230 231 231 232 231 229 228 228 228 226 223
259 256 254 257 257 256 255 247 242 245 249 249 245 242 240 244 247 246 248 253 248 240 243 243 236 233 233 233 229 223 221 223 224 225 225 226 227 227 227 226 226 226 226 225 221 219 220 221 222 222 223 225 228 230 231 233 233 233 232 232 232 231 230 230 231 232 233 233 232 230 229 230 229 226
260 260 258 257 259 255 251 249 245 243 246 248 244 241 243 243 243 243 244 245 239 232 239 246 239 228 223 223 222 218 216 216 216 218 220 223 224 225 226 227 227 226 225 223 222 220 219 219 219 221 222 224 227 230 232 234 235 235 233 232 232 232 232 232 231 232 232 233 233 232 232 231 229 227
258 261 260 259 260 257 251 247 245 243 245 247 243 243 244 239 236 238 236 232 225 222 228 241 244 232 219 216 215 211 212 212 207 206 209 214 218 220 222 223 223 223 221 219 219 220 220 219 219 221 222 224 227 230 233 234 235 237 237 235 234 233 233 233 233 233 233 233 233 233 233 232 229 228
258 261 261 260 261 259 251 245 243 242 243 245 243 244 247 240 230 229 226 219 216 221 224 231 239 235 219 216 216 211 207 205 203 201 201 202 205 208 210 212 211 211 211 211 212 214 217 219 219 221 222 225 227 230 232 234 234 235 237 237 237 235 234 233 233 234 234 234 234 234 234 233 231 230
260 260 259 259 260 257 250 243 242 243 242 244 244 244 246 237 223 218 219 218 221 226 226 226 232 232 221 214 218 215 205 198 197 200 201 201 198 196 200 203 204 203 205 207 209 210 213 216 219 221 223 224 227 229 232 234 234 235 236 237 238 237 236 235 233 233 234 235 235 235 235 235 233 231
274 263 257 257 256 254 248 241 240 244 244 244 245 244 241 229 217 214 217 221 226 230 228 224 223 225 223 218 218 219 209 197 193 195 199 203 202 198 199 201 202 204 206 209 212 213 215 217 220 223 224 225 227 229 231 233 234 234 236 236 236 236 236 236 236 234 234 235 236 236 235 235 234 233
292 268 254 255 255 253 249 241 239 241 242 242 243 242 240 231 223 224 225 225 228 231 230 224 217 216 219 220 222 226 222 208 201 198 197 201 205 204 203 201 200 203 207 210 213 215 217 218 221 223 225 226 227 228 231 233 234 234 234 236 236 236 235 235 235 235 234 235 236 236 236 236 235 233
290 265 250 251 254 253 248 241 239 240 239 240 241 241 240 235 231 231 233 232 230 230 231 227 219 216 215 217 222 226 226 220 216 211 206 205 206 206 205 203 200 201 205 208 212 214 215 217 220 223 224 226 227 228 229 232 234 234 233 234 236 237 237 236 235 234 232 232 233 234 235 237 237 236
286 271 249 246 249 249 245 241 240 240 239 239 240 242 243 241 236 233 234 235 233 230 230 226 221 219 218 215 218 221 224 226 224 221 218 215 212 210 209 209 208 206 206 208 211 214 215 217 219 222 224 225 227 227 228 230 232 234 233 232 232 233 234 235 234 233 231 229 229 229 230 232 234 236
279 281 255 247 246 246 246 242 241 241 242 241 240 242 244 244 242 239 236 236 235 233 231 229 225 222 220 219 218 219 223 228 227 225 224 222 219 217 216 216 218 215 211 211 214 215 216 218 220 223 225 226 227 227 228 229 230 232 232 230 229 228 230 232 232 231 229 227 227 227 227 228 230 232
266 262 255 254 250 246 245 242 241 243 244 243 243 243 243 244 243 242 240 236 233 233 233 232 231 228 226 224 223 223 226 230 232 232 230 227 224 222 220 220 223 221 217 216 217 218 219 219 221 225 225 226 227 227 227 228 229 231 231 229 227 225 225 228 229 229 229 228 227 227 228 228 228 229
260 259 257 254 248 244 246 245 243 244 245 244 243 242 243 244 244 243 242 239 234 233 232 233 234 236 236 232 228 230 233 233 234 236 236 233 230 228 225 224 226 226 221 217 218 221 222 222 222 225 226 225 226 226 226 226 227 228 228 227 225 221 219 223 226 228 229 230 229 230 230 230 229 227
269 268 265 261 255 249 246 248 247 245 244 243 242 242 241 243 244 245 244 241 237 235 235 234 235 236 239 238 235 236 240 238 235 236 237 235 232 231 229 228 229 228 220 215 216 216 220 222 221 221 224 225 223 223 224 223 224 225 225 224 222 217 216 219 222 223 226 230 230 231 232 233 233 232
271 267 263 260 258 251 245 244 247 249 246 241 240 242 240 238 240 242 243 241 236 235 236 236 237 237 238 237 236 236 239 241 241 239 237 233 227 226 226 224 226 227 222 217 214 210 215 221 218 217 222 223 220 221 223 223 223 224 223 223 223 218 215 217 217 216 219 224 227 229 229 231 233 233
269 265 262 258 257 255 251 247 245 245 246 244 241 242 242 240 236 235 237 237 233 231 232 233 235 237 235 233 232 230 232 237 239 237 235 231 224 219 218 216 215 222 223 219 213 210 214 217 214 215 220 220 219 220 223 225 225 225 224 223 223 220 219 219 218 216 214 216 222 226 227 228 228 228
267 266 267 263 261 262 262 258 251 244 243 244 242 241 243 243 241 236 232 231 228 227 227 227 228 230 231 229 226 225 228 233 238 238 232 225 220 215 213 209 203 210 221 220 214 213 217 217 215 215 216 216 218 220 223 225 226 226 226 225 224 222 221 222 222 221 217 213 214 218 223 226 227 226
275 274 274 270 265 263 262 261 258 251 247 246 246 245 243 242 242 240 234 230 228 226 226 226 226 226 227 227 225 226 228 230 236 240 234 222 218 216 212 210 207 212 222 221 214 214 219 220 219 218 215 212 215 220 222 223 225 226 226 227 226 225 223 224 225 225 223 220 216 212 214 222 228 228
283 281 279 275 272 267 260 257 257 254 249 246 246 247 244 242 243 244 239 235 232 229 227 227 227 228 229 229 229 230 231 230 232 237 234 226 221 218 213 213 215 219 227 227 220 218 221 222 221 220 218 215 218 224 225 225 226 227 228 229 229 228 226 226 226 227 227 226 224 220 216 218 224 229
282 283 282 280 278 273 265 259 256 253 249 243 242 243 242 242 244 243 241 238 234 230 228 226 226 228 229 229 230 231 232 231 232 234 232 227 222 218 214 215 221 224 230 233 226 221 223 225 225 224 224 225 231 237 238 237 237 235 233 233 233 232 231 230 229 230 230 230 230 229 227 226 229 233
276 277 276 276 277 275 268 260 254 251 247 241 241 242 241 240 240 238 238 238 234 228 226 226 225 226 226 229 230 228 228 230 230 232 231 227 221 217 216 217 220 224 228 231 228 223 224 226 228 230 233 236 239 243 244 244 244 242 239 237 236 235 235 234 234 234 234 232 231 231 230 230 231 233
278 279 278 277 280 281 274 263 252 250 249 243 240 239 237 236 235 232 231 233 233 229 226 224 224 225 226 226 226 225 227 228 228 231 232 225 218 218 220 220 217 217 221 225 227 226 226 227 228 232 236 238 241 245 245 245 246 246 244 241 238 236 236 236 236 236 235 234 234 233 230 228 227 227
296 299 299 294 291 283 274 265 254 249 251 248 244 240 235 232 230 227 224 224 227 229 228 224 222 224 226 226 225 227 228 226 226 228 226 220 218 218 218 217 214 215 219 223 225 226 227 229 231 231 232 234 239 244 245 246 247 247 246 244 242 239 237 236 236 236 236 236 236 235 233 230 228 226
307 308 303 297 290 278 272 269 258 248 250 252 251 245 234 226 224 223 220 218 220 223 227 227 224 222 223 222 222 225 226 224 223 221 216 217 220 218 213 212 213 216 219 222 224 225 226 229 230 229 231 234 235 237 240 243 245 247 246 245 246 244 240 236 235 236 237 238 238 237 236 234 232 231
316 314 307 300 288 269 269 275 264 260 262 258 254 242 225 217 216 217 218 219 218 217 222 227 226 222 217 212 214 222 225 224 221 215 212 216 219 216 215 217 219 221 223 224 225 226 229 232 232 231 234 235 233 233 237 241 245 248 247 243 242 244 242 239 237 237 238 240 240 240 239 239 238 236
354 342 327 321 286 202 251 259 262 286 279 249 226 208 204 206 208 211 215 218 217 216 219 225 226 221 213 208 213 221 221 220 218 216 217 220 217 214 217 223 225 227 228 228 227 227 229 232 233 234 238 239 238 239 241 243 245 247 247 243 241 243 244 242 241 241 239 240 241 242 242 242 242 241
352 348 346 30 79 54 284 262 271 302 292 222 198 185 186 194 201 208 211 209 208 211 214 217 217 213 206 206 214 216 210 211 216 216 220 221 215 211 216 223 228 230 230 231 232 232 232 234 236 237 239 240 242 243 244 245 245 247 248 246 244 244 245 244 243 243 242 241 242 242 242 242 242 242
350 4 37 71 66 26 344 301 288 281 193 180 187 185 185 190 197 204 205 201 202 208 213 214 211 205 200 204 213 215 212 214 216 215 219 222 218 215 218 222 228 233 234 234 235 236 237 239 239 239 238 239 241 242 242 244 247 248 248 249 248 247 248 247 247 246 246 245 245 245 245 244 244 244
15 34 53 71 58 30 17 0 338 304 175 176 183 184 188 193 193 194 196 198 200 204 207 209 207 201 200 203 210 215 218 219 216 212 216 221 222 222 224 226 231 237 239 238 238 239 240 241 240 239 240 241 243 245 245 244 245 246 247 247 248 249 249 248 248 249 250 250 249 249 249 249 248 248
38 42 54 69 60 42 36 32 26 45 160 176 173 174 182 185 181 182 191 200 205 205 205 203 200 198 201 205 209 213 215 215 212 209 211 216 218 220 223 227 231 236 240 242 242 239 239 240 239 240 242 243 245 248 249 247 245 245 246 247 247 249 250 250 251 252 252 252 252 251 252 253 253 253
49 50 61 71 70 64 61 58 60 81 129 158 164 171 177 175 169 172 180 187 191 197 204 203 198 199 204 206 206 208 210 212 213 213 215 219 222 224 226 228 231 234 236 239 240 238 238 240 241 242 243 244 244 247 251 252 250 248 248 249 249 249 249 250 252 253 254 254 255 255 256 257 258 258
57 61 70 75 76 76 75 74 76 85 98 114 133 151 164 167 167 174 183 187 190 198 206 205 202 206 213 213 213 216 219 222 223 222 223 226 228 230 232 234 235 237 238 240 243 243 242 243 243 243 243 243 244 247 252 254 254 254 254 254 253 251 249 249 252 254 257 258 259 259 259 259 259 259
60 66 71 74 74 73 75 76 76 79 86 96 106 117 127 134 140 150 165 180 188 195 200 202 204 211 218 220 221 224 226 227 229 229 230 232 233 235 237 239 240 242 243 245 247 247 246 245 245 245 245 244 246 250 253 254 256 259 259 256 254 252 251 251 253 256 258 259 259 259 259 259 259 259
57 61 64 66 67 67 67 67 67 68 73 80 86 94 102 110 117 126 138 153 169 180 189 195 200 206 210 212 214 216 218 220 224 226 228 230 232 234 237 240 243 245 247 249 250 250 251 251 251 251 250 249 250 252 253 252 255 257 257 255 253 252 252 252 254 255 256 257 257 258 259 259 259 260
57 59 57 55 54 54 54 56 54 53 55 59 64 69 76 86 100 120 142 160 176 190 197 202 207 210 212 214 215 217 221 224 227 228 229 230 232 233 236 238 241 244 246 248 250 251 252 254 255 256 255 253 252 252 250 250 251 254 254 253 252 252 254 254 254 254 254 255 255 255 255 256 258 259
58 63 59 51 42 34 31 32 32 31 31 32 34 37 38 43 60 107 172 189 199 208 214 219 223 225 226 228 229 230 232 234 235 237 237 238 238 238 238 238 240 243 245 248 250 251 251 250 249 248 249 249 248 247 247 248 250 253 256 255 254 255 256 257 257 256 255 253 252 252 252 252 254 255
53 59 60 56 48 33 16 6 4 7 11 12 11 10 8 357 311 251 244 242 239 237 236 237 237 238 238 237 238 239 240 241 241 241 241 242 244 244 242 242 244 245 245 247 248 247 244 240 239 239 240 241 241 243 246 248 251 254 258 260 261 260 259 259 258 257 254 252 251 250 250 250 251 253
52 49 46 40 31 19 0 345 341 348 356 0 1 6 14 17 9 306 230 234 239 243 245 245 245 244 242 239 240 241 242 242 242 241 240 241 245 246 244 241 240 239 238 237 237 235 230 229 231 233 236 238 240 244 248 252 255 259 262 265 266 265 263 260 258 256 254 253 251 251 251 251 252 254
35 31 27 18 10 4 353 342 336 338 345 351 355 360 9 16 19 27 30 309 255 250 248 245 242 240 238 237 240 241 241 239 238 238 239 240 243 245 242 236 231 228 226 227 229 230 230 232 234 237 240 244 247 249 253 257 261 263 264 265 265 264 262 260 258 258 257 256 255 254 255 255 256 257